Погода в Хаме

Сирия     35°07′57″N   36°45′34″E
темп.,
°C
ветер,
м/с
пор.,
м/с
влажн.,
%
обл.,
%
осадки,
мм/ч
давл.,
гПа
погр.,
м
9 мая, вс
вс900:00+21з11435 0.0 101211
03:00+20ююз114257 0.0 101011
06:00+20ю2234100 0.0 101012
09:00+27зюз2322100 0.3 1010299
12:00+34з711121 0.1 10082062
15:00+34зюз1014110 0.1 10071935
18:00+31зюз711140 0.0 10071235
21:00+23зюз33260 0.0 100830
10 мая, пн
пн1000:00+21ююз11320 0.0 100911
03:00+19всв711350 0.0 1010285
06:00+16св47270 0.0 1012185
09:00+21св45160 0.0 1013743
12:00+26св22150 0.0 10111223
15:00+29с23150 0.0 10091654
18:00+29ссз33190 0.0 10071429
21:00+21з22430 0.0 100921
11 мая, вт
вт1100:00+19зсз22510 0.0 100914
03:00+17зсз11510 0.0 100911
06:00+16з11490 0.0 101011
09:00+22ссз01300 0.0 1010492
12:00+28зсз12210 0.0 10091473
15:00+31сз35140 0.0 10072446
18:00+30зсз54170 0.0 10061325
21:00+22з22320 0.0 100820
12 мая, ср
ср1200:00+19юз22340 0.0 101014
03:00+18з11340 0.0 100911
06:00+17з11340 0.0 101011
09:00+24з11215 0.0 1010382
12:00+29сз11161 0.0 10101371
15:00+32зсз23115 0.0 10082224
18:00+29зсз66200 0.0 1008494
21:00+22зсз22340 0.0 101028
13 мая, чт
чт1300:00+20юз22350 0.0 101014
03:00+18зюз11350 0.0 101011
06:00+18юз11350 0.0 101111
09:00+24зюз11200 0.0 1011392
12:00+30зсз22140 0.0 10101224
15:00+34сз33110 0.0 10092168
18:00+30зсз67230 0.0 1009532
21:00+22зсз23430 0.0 101151